Change the Weather History Date:

Thursday, July 3, 2014

  Actual Average Record
Temperature  
Mean Temperature 80 °F 75 °F  
Max Temperature 94 °F 90 °F 101 °F (2007)
Min Temperature 66 °F 60 °F 36 °F (2002)
Degree Days  
Heating Degree Days 0    
Month to date heating degree days 0  
Since 1 July heating degree days 0  
Cooling Degree Days 15    
Month to date cooling degree days 46  
Year to date cooling degree days 352  
Growing Degree Days 30 (Base 50)    
Moisture  
Dew Point 43 °F    
Average Humidity 29    
Maximum Humidity 46    
Minimum Humidity 18    
Precipitation  
Precipitation 0.01 in 0.04 in 0.65 in (1950)
Month to date precipitation 0.01 0.12  
Year to date precipitation 0.98 5.05  
Sea Level Pressure  
Sea Level Pressure 29.91 in    
Wind  
Wind Speed 10 mph (SSE)    
Max Wind Speed 30 mph    
Max Gust Speed 37 mph    
Visibility 10 miles    
Events Rain , Thunderstorm    
T = Trace of Precipitation, MM = Missing Value Source: NWS Daily Summary

Daily Weather History Graph

Daily Weather History Graph

Search for Another Location

Airport or City:

Trip Planner

Search our weather history database for the weather conditions in past years. The results will help you decide how hot, cold, wet, or windy it might be!

Date:

Astronomy

Jul. 03, 2014 Rise Set
Actual Time 5:21 AM MST 7:46 PM MST
Civil Twilight 4:51 AM MST 8:15 PM MST
Nautical Twilight 4:15 AM MST 8:51 PM MST
Astronomical Twilight 3:36 AM MST 9:31 PM MST
Moon 11:08 AM MST (7/3) 11:27 PM MST (7/3)
Length of Visible Light 15h 23m
Length of Day
14h 25m
Waxing Crescent, 34% of the Moon is Illuminated
Jul 3
Waxing Crescent
Jul 5
First Quarter
Jul 12
Full
Jul 18
Last Quarter
Jul 26
New

Hourly Weather History & Observations

Time (MST) Temp. Dew Point Humidity Pressure Visibility Wind Dir Wind Speed Gust Speed Precip Events Conditions
12:53 AM 70.0 °F 41.0 °F 35% 29.86 in 10.0 mi North - - N/A   Clear
1:53 AM 71.1 °F 37.0 °F 29% 29.84 in 10.0 mi South 4.6 mph - N/A   Clear
2:53 AM 68.0 °F 37.9 °F 33% 29.85 in 10.0 mi SW 4.6 mph - N/A   Clear
3:53 AM 68.0 °F 36.0 °F 31% 29.87 in 10.0 mi WSW 3.5 mph - N/A   Clear
4:53 AM 68.0 °F 36.0 °F 31% 29.88 in 10.0 mi South 4.6 mph - N/A   Clear
5:53 AM 71.1 °F 39.0 °F 31% 29.90 in 10.0 mi South 6.9 mph - N/A   Clear
7:53 AM 78.1 °F 39.0 °F 25% 29.93 in 10.0 mi ESE 9.2 mph - N/A   Clear
8:53 AM 82.9 °F 43.0 °F 24% 29.92 in 10.0 mi Variable 3.5 mph - N/A   Partly Cloudy
9:53 AM 84.9 °F 44.1 °F 24% 29.91 in 10.0 mi ESE 8.1 mph - N/A   Partly Cloudy
10:53 AM 87.1 °F 44.1 °F 22% 29.91 in 10.0 mi Variable 5.8 mph 18.4 mph N/A   Partly Cloudy
12:53 PM 91.9 °F 42.1 °F 18% 29.88 in 10.0 mi South 9.2 mph - N/A   Scattered Clouds
1:53 PM 91.0 °F 43.0 °F 19% 29.86 in 10.0 mi SSE 8.1 mph - N/A   Scattered Clouds
2:53 PM 93.9 °F 44.1 °F 18% 29.84 in 10.0 mi WSW 11.5 mph 28.8 mph 0.01 in   Scattered Clouds
3:53 PM 91.9 °F 42.1 °F 18% 29.82 in 10.0 mi North - - N/A   Partly Cloudy
4:53 PM 89.6 °F 44.6 °F 21% 29.83 in 10.0 mi Calm Calm - N/A   Mostly Cloudy
5:42 PM 78.1 °F 48.0 °F 35% 30.12 in 10.0 mi East 13.8 mph 24.2 mph 0.00 in Rain , Thunderstorm Light Thunderstorms and Rain
5:53 PM 80.1 °F 43.0 °F 27% 29.85 in 10.0 mi East 15.0 mph 29.9 mph 0.00 in Rain , Thunderstorm Light Thunderstorms and Rain
6:53 PM 82.0 °F 46.0 °F 28% 29.85 in 10.0 mi SE 21.9 mph 35.7 mph 0.00 in   Mostly Cloudy
7:53 PM 75.9 °F 48.9 °F 38% 29.92 in 10.0 mi SSE 17.3 mph 26.5 mph N/A   Partly Cloudy
8:53 PM 73.0 °F 51.1 °F 46% 29.95 in 10.0 mi SE 15.0 mph 27.6 mph N/A   Mostly Cloudy
9:53 PM 73.0 °F 48.9 °F 42% 29.95 in 10.0 mi SE 28.8 mph 35.7 mph N/A Thunderstorm Mostly Cloudy
10:16 PM 73.0 °F 48.0 °F 41% 30.22 in 10.0 mi SE 24.2 mph 31.1 mph 0.00 in Rain Light Rain
10:53 PM 73.9 °F 46.0 °F 37% 29.92 in 10.0 mi SSE 18.4 mph 33.4 mph 0.00 in   Clear
11:53 PM 75.0 °F 45.0 °F 34% 29.92 in 10.0 mi SSE 10.4 mph - N/A   Clear